Location: Peterborough
(44.3091°N, 78.3197°W)
Time: 01:27:23
(UTC-04:00)

Vanguard 2 Rocket - Pass Details

Date: 22 March 2023
Orbit: 554 x 3314 km, 32.9° (Epoch: 02 June)

Event Time Altitude Azimuth Distance (km) Brightness Sun altitude
Rises 02:41:14 0° 273° (W) 5,719 - -41.7°
Reaches altitude 10° 02:44:57 10° 265° (W) 5,053 - -41.3°
Maximum altitude 02:58:40 37° 206° (SSW) 4,125 - -40.1°
Exits shadow 03:10:26 21° 159° (SSE) 5,372 10.5 -38.9°
Drops below altitude 10° 03:15:51 10° 148° (SSE) 6,243 10.9 -38.3°
Sets 03:21:11 0° 141° (SE) 7,158 11.4 -37.7°
